TimePDT,TemperatureF,Dew PointF,Humidity,Sea Level PressureIn,VisibilityMPH,Wind Direction,Wind SpeedMPH,Gust SpeedMPH,PrecipitationIn,Events,Conditions,WindDirDegrees,DateUTC
12:15 AM,53.6,53.6,100,29.84,10.0,Calm,Calm,-,N/A,,Mostly Cloudy,0,2013-05-06 07:15:00
12:35 AM,53.6,53.6,100,29.84,10.0,Calm,Calm,-,N/A,,Overcast,0,2013-05-06 07:35:00
12:55 AM,53.6,51.8,94,29.85,10.0,Calm,Calm,-,N/A,,Overcast,0,2013-05-06 07:55:00
1:15 AM,55.4,51.8,88,29.85,10.0,North,3.5,-,N/A,,Overcast,350,2013-05-06 08:15:00
1:35 AM,55.4,53.6,94,29.85,10.0,Calm,Calm,-,N/A,,Overcast,0,2013-05-06 08:35:00
1:55 AM,55.4,53.6,94,29.85,10.0,Calm,Calm,-,N/A,,Mostly Cloudy,0,2013-05-06 08:55:00
2:15 AM,53.6,53.6,100,29.85,10.0,NNW,4.6,-,N/A,,Unknown,340,2013-05-06 09:15:00
2:35 AM,53.6,53.6,100,29.85,10.0,NNW,3.5,-,N/A,,Mostly Cloudy,340,2013-05-06 09:35:00
2:55 AM,53.6,53.6,100,29.85,10.0,NNW,5.8,-,N/A,,Mostly Cloudy,340,2013-05-06 09:55:00
3:15 AM,53.6,53.6,100,29.85,10.0,North,4.6,-,N/A,,Overcast,360,2013-05-06 10:15:00
3:35 AM,55.4,53.6,94,29.84,10.0,Calm,Calm,-,N/A,,Overcast,0,2013-05-06 10:35:00
3:55 AM,55.4,53.6,94,29.84,10.0,SW,3.5,-,N/A,,Overcast,230,2013-05-06 10:55:00
4:15 AM,55.4,53.6,94,29.84,10.0,Calm,Calm,-,N/A,,Overcast,0,2013-05-06 11:15:00
4:35 AM,55.4,53.6,94,29.84,10.0,Calm,Calm,-,N/A,,Overcast,0,2013-05-06 11:35:00
4:55 AM,53.6,53.6,100,29.84,10.0,NE,3.5,-,N/A,,Mostly Cloudy,40,2013-05-06 11:55:00
5:15 AM,51.8,51.8,100,29.84,10.0,ENE,3.5,-,N/A,,Mostly Cloudy,60,2013-05-06 12:15:00
5:35 AM,50.0,50.0,100,29.84,10.0,Calm,Calm,-,N/A,,Unknown,0,2013-05-06 12:35:00
5:55 AM,51.8,51.8,100,29.84,10.0,Calm,Calm,-,N/A,,Mostly Cloudy,0,2013-05-06 12:55:00
6:15 AM,53.6,53.6,100,29.84,10.0,SSW,3.5,-,N/A,,Partly Cloudy,210,2013-05-06 13:15:00
6:35 AM,50.0,50.0,100,29.84,10.0,Calm,Calm,-,N/A,,Clear,0,2013-05-06 13:35:00
6:55 AM,51.8,51.8,100,29.86,10.0,Calm,Calm,-,N/A,,Clear,0,2013-05-06 13:55:00
7:15 AM,51.8,51.8,100,29.86,10.0,Calm,Calm,-,N/A,,Clear,0,2013-05-06 14:15:00
7:35 AM,53.6,53.6,100,29.87,10.0,Calm,Calm,-,N/A,,Clear,0,2013-05-06 14:35:00
7:55 AM,55.4,53.6,94,29.87,10.0,South,3.5,-,N/A,,Clear,170,2013-05-06 14:55:00
8:15 AM,57.2,53.6,88,29.87,10.0,SW,3.5,-,N/A,,Clear,220,2013-05-06 15:15:00
8:35 AM,59.0,51.8,77,29.88,10.0,Calm,Calm,-,N/A,,Clear,0,2013-05-06 15:35:00
8:55 AM,60.8,51.8,72,29.88,10.0,Calm,Calm,-,N/A,,Clear,0,2013-05-06 15:55:00
9:15 AM,62.6,51.8,68,29.88,10.0,SSE,3.5,-,N/A,,Mostly Cloudy,150,2013-05-06 16:15:00
9:35 AM,62.6,50.0,63,29.89,10.0,ESE,3.5,-,N/A,,Mostly Cloudy,110,2013-05-06 16:35:00
9:55 AM,64.4,50.0,59,29.89,10.0,SE,3.5,-,N/A,,Scattered Clouds,140,2013-05-06 16:55:00
10:15 AM,66.2,50.0,56,29.89,10.0,South,8.1,-,N/A,,Partly Cloudy,170,2013-05-06 17:15:00
10:35 AM,64.4,50.0,59,29.89,10.0,South,6.9,-,N/A,,Mostly Cloudy,170,2013-05-06 17:35:00
10:55 AM,66.2,50.0,56,29.89,10.0,South,9.2,-,N/A,,Mostly Cloudy,170,2013-05-06 17:55:00
11:15 AM,66.2,50.0,56,29.89,10.0,SSE,6.9,-,N/A,,Overcast,150,2013-05-06 18:15:00
11:35 AM,68.0,50.0,52,29.90,10.0,SE,3.5,-,N/A,,Mostly Cloudy,140,2013-05-06 18:35:00
11:55 AM,68.0,48.2,49,29.90,10.0,SE,3.5,-,N/A,,Mostly Cloudy,130,2013-05-06 18:55:00
12:15 PM,68.0,48.2,49,29.89,10.0,South,5.8,-,N/A,,Mostly Cloudy,170,2013-05-06 19:15:00
12:35 PM,68.0,48.2,49,29.89,10.0,Calm,Calm,-,N/A,,Mostly Cloudy,0,2013-05-06 19:35:00
12:55 PM,68.0,48.2,49,29.89,10.0,ESE,5.8,-,N/A,,Mostly Cloudy,110,2013-05-06 19:55:00
1:15 PM,68.0,48.2,49,29.89,10.0,SE,6.9,-,N/A,,Mostly Cloudy,130,2013-05-06 20:15:00
1:35 PM,71.6,48.2,43,29.89,10.0,SE,5.8,-,N/A,,Scattered Clouds,140,2013-05-06 20:35:00
1:55 PM,69.8,48.2,46,29.89,10.0,South,9.2,-,N/A,,Mostly Cloudy,190,2013-05-06 20:55:00
2:15 PM,68.0,48.2,49,29.89,10.0,SW,10.4,-,N/A,,Mostly Cloudy,230,2013-05-06 21:15:00
2:35 PM,68.0,48.2,49,29.88,10.0,NW,4.6,-,N/A,,Mostly Cloudy,320,2013-05-06 21:35:00
2:55 PM,71.6,48.2,43,29.88,10.0,Calm,Calm,-,N/A,,Mostly Cloudy,0,2013-05-06 21:55:00
3:15 PM,68.0,48.2,49,29.88,10.0,Calm,Calm,-,N/A,,Mostly Cloudy,0,2013-05-06 22:15:00
3:35 PM,68.0,48.2,49,29.88,10.0,West,3.5,-,N/A,,Overcast,260,2013-05-06 22:35:00
3:55 PM,68.0,50.0,52,29.88,10.0,NNW,6.9,-,N/A,,Overcast,340,2013-05-06 22:55:00
4:15 PM,66.2,51.8,60,29.88,10.0,NE,10.4,-,N/A,,Overcast,50,2013-05-06 23:15:00
4:35 PM,66.2,51.8,60,29.88,10.0,North,8.1,-,N/A,,Overcast,10,2013-05-06 23:35:00
4:55 PM,66.2,50.0,56,29.88,10.0,NNW,11.5,-,N/A,,Mostly Cloudy,340,2013-05-06 23:55:00
5:15 PM,66.2,48.2,52,29.88,10.0,NW,9.2,-,N/A,,Overcast,320,2013-05-07 00:15:00
5:35 PM,66.2,46.4,49,29.89,10.0,SW,9.2,-,N/A,,Overcast,230,2013-05-07 00:35:00
5:55 PM,64.4,46.4,52,29.90,10.0,SW,9.2,-,N/A,,Overcast,230,2013-05-07 00:55:00
6:15 PM,64.4,46.4,52,29.90,10.0,SW,9.2,-,N/A,,Overcast,230,2013-05-07 01:15:00
6:35 PM,64.4,48.2,56,29.90,10.0,WSW,9.2,-,N/A,,Mostly Cloudy,240,2013-05-07 01:35:00
6:55 PM,64.4,48.2,56,29.90,10.0,WSW,9.2,-,N/A,,Scattered Clouds,250,2013-05-07 01:55:00
7:15 PM,62.6,48.2,59,29.90,10.0,WSW,8.1,-,N/A,,Clear,250,2013-05-07 02:15:00
7:55 PM,62.6,48.2,59,29.91,10.0,WSW,9.2,-,N/A,,Partly Cloudy,240,2013-05-07 02:55:00
8:15 PM,62.6,48.2,59,29.92,10.0,West,6.9,-,N/A,,Mostly Cloudy,270,2013-05-07 03:15:00
8:35 PM,60.8,50.0,68,29.93,10.0,North,3.5,-,N/A,,Overcast,360,2013-05-07 03:35:00
8:55 PM,59.0,50.0,72,29.94,10.0,NNW,3.5,-,N/A,,Overcast,340,2013-05-07 03:55:00
9:15 PM,59.0,51.8,77,29.95,10.0,NW,4.6,-,N/A,,Overcast,320,2013-05-07 04:15:00
9:35 PM,59.0,51.8,77,29.96,10.0,North,5.8,-,N/A,,Overcast,350,2013-05-07 04:35:00
9:55 PM,59.0,55.4,88,29.97,10.0,NW,5.8,-,N/A,,Overcast,320,2013-05-07 04:55:00
10:15 PM,59.0,55.4,88,29.98,10.0,NNW,8.1,-,N/A,,Overcast,340,2013-05-07 05:15:00
10:35 PM,57.2,55.4,94,29.98,10.0,NNW,5.8,-,N/A,,Overcast,330,2013-05-07 05:35:00
10:55 PM,57.2,55.4,94,29.98,10.0,NW,6.9,-,N/A,,Overcast,320,2013-05-07 05:55:00
11:15 PM,57.2,55.4,94,29.99,10.0,NW,6.9,-,N/A,,Overcast,320,2013-05-07 06:15:00
11:35 PM,57.2,55.4,94,29.99,10.0,NW,6.9,-,N/A,,Overcast,320,2013-05-07 06:35:00
11:55 PM,57.2,55.4,94,29.99,10.0,NNW,5.8,-,N/A,,Mostly Cloudy,330,2013-05-07 06:55:00